• In Hungary
  • List of Countries
  • For 7 days
  • Water Temperature
  • Satellite Maps
  • Weather Map
  • News
  • Weather Widgets
  • user-avatar
    Login

    Hourly Weather Starohvalynskiy

    Today, 24 May, Thursday

    Time Temperature Precipitation Wind Pressure Humidity
    00:00 +19°C° 0 mm 1 mps 748 mmHg 74%
    01:00 +18°C° 0 mm 1 mps 748 mmHg 76%
    02:00 +18°C° 0 mm 1 mps 747 mmHg 77%
    03:00 +16°C° 0 mm 1 mps 747 mmHg 78%
    04:00 +16°C° 0 mm 1 mps 747 mmHg 77%
    05:00 +18°C° 0 mm 1 mps 747 mmHg 73%
    06:00 +20°C° 0 mm 1 mps 747 mmHg 70%
    07:00 +21°C° 0 mm 1 mps 747 mmHg 67%
    08:00 +23°C° 0 mm 2 mps 747 mmHg 61%
    09:00 +24°C° 0 mm 3 mps 746 mmHg 55%
    10:00 +26°C° 0 mm 3 mps 746 mmHg 50%
    11:00 +27°C° 0 mm 3 mps 746 mmHg 47%
    12:00 +28°C° 0 mm 4 mps 745 mmHg 45%
    13:00 +28°C° 0 mm 4 mps 745 mmHg 42%
    14:00 +28°C° 0 mm 4 mps 745 mmHg 43%
    15:00 +28°C° 0 mm 4 mps 744 mmHg 43%
    16:00 +29°C° 0 mm 4 mps 744 mmHg 43%
    17:00 +27°C° 0 mm 4 mps 744 mmHg 50%
    18:00 +26°C° 0 mm 3 mps 744 mmHg 56%
    19:00 +24°C° 0 mm 3 mps 744 mmHg 62%
    20:00 +21°C° 0 mm 2 mps 743 mmHg 68%
    21:00 +20°C° 0 mm 2 mps 743 mmHg 73%
    22:00 +19°C° 0 mm 1 mps 743 mmHg 79%
    23:00 +18°C° 0 mm 1 mps 742 mmHg 80%

    Tomorrow, 25 May, Friday

    Time Temperature Precipitation Wind Pressure Humidity
    00:00 +18°C° 0 mm 1 mps 742 mmHg 81%
    01:00 +16°C° 0 mm 1 mps 741 mmHg 82%
    02:00 +16°C° 0.1 mm 1 mps 741 mmHg 82%
    03:00 +16°C° 0.1 mm 1 mps 741 mmHg 83%
    04:00 +15°C° 0.1 mm 1 mps 741 mmHg 84%
    05:00 +16°C° 0.1 mm 1 mps 741 mmHg 81%
    06:00 +19°C° 0.1 mm 1 mps 740 mmHg 79%
    07:00 +20°C° 0.1 mm 1 mps 740 mmHg 77%
    08:00 +20°C° 0 mm 2 mps 740 mmHg 71%
    09:00 +21°C° 0 mm 2 mps 739 mmHg 66%
    10:00 +23°C° 0 mm 2 mps 739 mmHg 60%
    11:00 +24°C° 0.1 mm 3 mps 739 mmHg 60%
    12:00 +23°C° 0.1 mm 5 mps 738 mmHg 60%
    13:00 +23°C° 0.1 mm 6 mps 738 mmHg 60%
    14:00 +21°C° 0.3 mm 6 mps 738 mmHg 66%
    15:00 +19°C° 0.3 mm 5 mps 738 mmHg 73%
    16:00 +17°C° 0.3 mm 5 mps 738 mmHg 79%
    17:00 +16°C° 0.4 mm 5 mps 738 mmHg 82%
    18:00 +14°C° 0.4 mm 5 mps 738 mmHg 84%
    19:00 +13°C° 0.4 mm 5 mps 738 mmHg 86%
    20:00 +12°C° 0.3 mm 5 mps 738 mmHg 87%
    21:00 +12°C° 0.3 mm 5 mps 739 mmHg 87%
    22:00 +10°C° 0.3 mm 5 mps 739 mmHg 87%
    23:00 +9°C° 0.3 mm 5 mps 739 mmHg 87%

    Day after tomorrow, 26 May, Saturday

    Time Temperature Precipitation Wind Pressure Humidity
    00:00 +10°C° 0.3 mm 4 mps 739 mmHg 86%
    01:00 +8°C° 0.3 mm 4 mps 739 mmHg 85%
    02:00 +8°C° 0.2 mm 5 mps 740 mmHg 84%
    03:00 +7°C° 0.2 mm 5 mps 740 mmHg 83%
    04:00 +7°C° 0.2 mm 6 mps 740 mmHg 81%
    05:00 +7°C° 0.2 mm 6 mps 741 mmHg 79%
    06:00 +6°C° 0.2 mm 7 mps 742 mmHg 77%
    07:00 +6°C° 0.2 mm 7 mps 742 mmHg 75%
    08:00 +9°C° 0 mm 7 mps 743 mmHg 68%
    09:00 +10°C° 0 mm 7 mps 743 mmHg 61%
    10:00 +11°C° 0 mm 7 mps 744 mmHg 54%
    11:00 +11°C° 0 mm 6 mps 744 mmHg 52%
    12:00 +13°C° 0 mm 6 mps 745 mmHg 49%
    13:00 +13°C° 0 mm 6 mps 745 mmHg 46%
    14:00 +13°C° 0 mm 6 mps 746 mmHg 46%
    15:00 +13°C° 0 mm 6 mps 746 mmHg 46%
    16:00 +13°C° 0 mm 6 mps 746 mmHg 47%
    17:00 +11°C° 0 mm 6 mps 747 mmHg 50%
    18:00 +12°C° 0 mm 5 mps 747 mmHg 53%
    19:00 +10°C° 0 mm 5 mps 748 mmHg 56%
    20:00 +10°C° 0 mm 4 mps 748 mmHg 57%
    21:00 +7°C° 0 mm 4 mps 749 mmHg 59%
    22:00 +6°C° 0 mm 4 mps 750 mmHg 60%
    23:00 +5°C° 0 mm 3 mps 750 mmHg 62%

    27 May, Sunday

    Time Temperature Precipitation Wind Pressure Humidity
    00:00 +4°C° 0 mm 3 mps 750 mmHg 64%
    01:00 +4°C° 0 mm 2 mps 751 mmHg 66%
    02:00 +4°C° 0 mm 2 mps 751 mmHg 66%
    03:00 +4°C° 0 mm 2 mps 751 mmHg 66%
    04:00 +3°C° 0 mm 2 mps 752 mmHg 67%
    05:00 +5°C° 0 mm 2 mps 752 mmHg 62%
    06:00 +7°C° 0 mm 2 mps 752 mmHg 58%
    07:00 +9°C° 0 mm 2 mps 752 mmHg 54%
    08:00 +12°C° 0 mm 2 mps 752 mmHg 51%
    09:00 +12°C° 0 mm 3 mps 751 mmHg 48%
    10:00 +14°C° 0 mm 4 mps 751 mmHg 45%
    11:00 +15°C° 0 mm 4 mps 751 mmHg 47%
    12:00 +16°C° 0 mm 5 mps 750 mmHg 49%
    13:00 +17°C° 0 mm 6 mps 750 mmHg 51%
    14:00 +17°C° 0 mm 6 mps 749 mmHg 53%
    15:00 +17°C° 0 mm 6 mps 749 mmHg 55%
    16:00 +19°C° 0 mm 6 mps 748 mmHg 57%
    17:00 +17°C° 0 mm 5 mps 748 mmHg 61%
    18:00 +17°C° 0 mm 5 mps 747 mmHg 65%
    19:00 +16°C° 0 mm 5 mps 747 mmHg 68%
    20:00 +15°C° 0 mm 5 mps 747 mmHg 71%
    21:00 +14°C° 0 mm 5 mps 746 mmHg 74%
    22:00 +12°C° 0 mm 4 mps 746 mmHg 76%
    23:00 +12°C° 0 mm 5 mps 746 mmHg 76%

    28 May, Monday

    Time Temperature Precipitation Wind Pressure Humidity
    00:00 +12°C° 0 mm 5 mps 745 mmHg 77%
    01:00 +10°C° 0 mm 5 mps 745 mmHg 77%
    02:00 +10°C° 0 mm 5 mps 744 mmHg 76%
    03:00 +10°C° 0 mm 6 mps 744 mmHg 76%
    04:00 +10°C° 0 mm 6 mps 744 mmHg 76%
    05:00 +11°C° 0.1 mm 6 mps 743 mmHg 76%
    06:00 +11°C° 0.1 mm 6 mps 743 mmHg 77%
    07:00 +11°C° 0.1 mm 7 mps 743 mmHg 78%
    08:00 +12°C° 0.5 mm 7 mps 742 mmHg 78%
    09:00 +12°C° 0.5 mm 7 mps 742 mmHg 79%
    10:00 +12°C° 0.5 mm 7 mps 742 mmHg 80%
    11:00 +11°C° 1.5 mm 6 mps 742 mmHg 83%
    12:00 +10°C° 1.5 mm 5 mps 742 mmHg 86%
    13:00 +10°C° 1.5 mm 4 mps 742 mmHg 88%
    14:00 +10°C° 0.3 mm 5 mps 742 mmHg 79%
    15:00 +12°C° 0.3 mm 5 mps 742 mmHg 70%
    16:00 +13°C° 0.3 mm 6 mps 742 mmHg 60%
    17:00 +12°C° 0.1 mm 5 mps 742 mmHg 61%
    18:00 +12°C° 0.1 mm 5 mps 743 mmHg 63%
    19:00 +11°C° 0.1 mm 4 mps 743 mmHg 64%
    20:00 +9°C° 0 mm 3 mps 743 mmHg 69%
    21:00 +7°C° 0 mm 3 mps 743 mmHg 74%
    22:00 +6°C° 0 mm 2 mps 743 mmHg 80%
    23:00 +5°C° 0 mm 2 mps 744 mmHg 83%

    29 May, Tuesday

    Time Temperature Precipitation Wind Pressure Humidity
    00:00 +5°C° 0 mm 2 mps 744 mmHg 86%
    01:00 +4°C° 0 mm 2 mps 744 mmHg 89%
    02:00 +2°C° 0 mm 3 mps 744 mmHg 89%
    03:00 +2°C° 0 mm 3 mps 744 mmHg 89%
    04:00 +1°C° 0 mm 3 mps 744 mmHg 90%
    05:00 +3°C° 0 mm 3 mps 745 mmHg 80%
    06:00 +4°C° 0 mm 4 mps 745 mmHg 71%
    07:00 +5°C° 0 mm 5 mps 745 mmHg 62%
    08:00 +6°C° 0 mm 5 mps 745 mmHg 57%
    09:00 +8°C° 0 mm 5 mps 744 mmHg 52%
    10:00 +9°C° 0 mm 5 mps 744 mmHg 47%
    11:00 +10°C° 0 mm 5 mps 744 mmHg 48%
    12:00 +10°C° 0 mm 6 mps 743 mmHg 48%
    13:00 +11°C° 0 mm 6 mps 743 mmHg 49%
    14:00 +12°C° 0 mm 5 mps 742 mmHg 53%
    15:00 +12°C° 0 mm 5 mps 742 mmHg 58%
    16:00 +12°C° 0 mm 5 mps 741 mmHg 63%
    17:00 +11°C° 0.3 mm 4 mps 741 mmHg 71%
    18:00 +10°C° 0.3 mm 4 mps 741 mmHg 79%
    19:00 +10°C° 0.3 mm 3 mps 740 mmHg 88%
    20:00 +9°C° 0.1 mm 3 mps 740 mmHg 89%
    21:00 +9°C° 0.1 mm 3 mps 740 mmHg 91%
    22:00 +8°C° 0.1 mm 3 mps 740 mmHg 93%
    23:00 +7°C° 0 mm 3 mps 740 mmHg 93%
    Show more